Time,TemperatureF,DewpointF,PressureIn,WindDirection,WindDirectionDegrees,WindSpeedMPH,WindSpeedGustMPH,Humidity,HourlyPrecipIn,Conditions,Clouds,dailyrainin,SoftwareType,DateUTC
2013-08-23 00:06:00,71.6,70.0,29.88,SSW,208,3.0,-999.0,95,-99.99,,,0.00,weatherlink.com 1.10,2013-08-23 04:06:00,
2013-08-23 00:21:00,71.5,70.0,29.87,SSW,213,2.0,-999.0,95,-99.99,,,0.00,weatherlink.com 1.10,2013-08-23 04:21:00,
2013-08-23 00:36:00,71.3,70.0,29.88,SW,229,1.0,-999.0,96,-99.99,,,0.00,weatherlink.com 1.10,2013-08-23 04:36:00,
2013-08-23 00:50:00,71.3,70.0,29.88,SW,217,2.0,-999.0,96,-99.99,,,0.00,weatherlink.com 1.10,2013-08-23 04:50:00,
2013-08-23 01:06:00,71.1,70.0,29.87,WSW,257,2.0,-999.0,96,-99.99,,,0.00,weatherlink.com 1.10,2013-08-23 05:06:00,
2013-08-23 01:21:00,70.9,70.0,29.87,WSW,242,1.0,-999.0,96,-99.99,,,0.00,weatherlink.com 1.10,2013-08-23 05:21:00,
2013-08-23 01:36:00,70.9,70.0,29.86,SW,217,1.0,-999.0,96,-99.99,,,0.00,weatherlink.com 1.10,2013-08-23 05:36:00,
2013-08-23 01:51:00,70.8,70.0,29.87,SW,232,0.0,-999.0,96,-99.99,,,0.00,weatherlink.com 1.10,2013-08-23 05:51:00,
2013-08-23 02:06:00,70.9,70.0,29.86,SW,232,1.0,-999.0,96,-99.99,,,0.00,weatherlink.com 1.10,2013-08-23 06:06:00,
2013-08-23 02:21:00,70.9,70.0,29.87,WSW,249,0.0,-999.0,96,-99.99,,,0.00,weatherlink.com 1.10,2013-08-23 06:21:00,
2013-08-23 02:36:00,71.1,70.0,29.87,West,271,0.0,-999.0,96,-99.99,,,0.00,weatherlink.com 1.10,2013-08-23 06:36:00,
2013-08-23 02:51:00,71.1,70.0,29.86,West,271,0.0,-999.0,96,-99.99,,,0.00,weatherlink.com 1.10,2013-08-23 06:51:00,
2013-08-23 03:06:00,71.1,70.0,29.86,West,281,2.0,-999.0,97,-99.99,,,0.00,weatherlink.com 1.10,2013-08-23 07:06:00,
2013-08-23 03:21:00,71.1,70.0,29.86,SW,216,0.0,-999.0,97,-99.99,,,0.00,weatherlink.com 1.10,2013-08-23 07:21:00,
2013-08-23 03:36:00,70.9,70.0,29.86,SW,216,0.0,-999.0,97,-99.99,,,0.00,weatherlink.com 1.10,2013-08-23 07:36:00,
2013-08-23 03:51:00,70.8,70.0,29.86,West,262,0.0,-999.0,97,-99.99,,,0.00,weatherlink.com 1.10,2013-08-23 07:51:00,
2013-08-23 04:06:00,70.8,70.0,29.86,West,262,0.0,-999.0,97,-99.99,,,0.00,weatherlink.com 1.10,2013-08-23 08:06:00,
2013-08-23 04:21:00,70.8,70.0,29.86,NNE,14,0.0,-999.0,97,-99.99,,,0.00,weatherlink.com 1.10,2013-08-23 08:21:00,
2013-08-23 04:36:00,70.9,70.0,29.86,NNW,333,4.0,-999.0,97,-99.99,,,0.00,weatherlink.com 1.10,2013-08-23 08:36:00,
2013-08-23 04:51:00,70.9,70.0,29.86,NW,304,0.0,-999.0,97,-99.99,,,0.00,weatherlink.com 1.10,2013-08-23 08:51:00,
2013-08-23 05:06:00,70.9,70.0,29.87,NNW,336,0.0,-999.0,97,-99.99,,,0.00,weatherlink.com 1.10,2013-08-23 09:06:00,
2013-08-23 05:21:00,70.8,70.0,29.88,NNW,336,0.0,-999.0,97,-99.99,,,0.00,weatherlink.com 1.10,2013-08-23 09:21:00,
2013-08-23 05:36:00,70.6,70.0,29.88,NNW,336,0.0,-999.0,97,-99.99,,,0.00,weatherlink.com 1.10,2013-08-23 09:36:00,
2013-08-23 05:51:00,70.4,70.0,29.89,NNW,341,0.0,-999.0,97,-99.99,,,0.00,weatherlink.com 1.10,2013-08-23 09:51:00,
2013-08-23 06:06:00,70.1,69.0,29.89,North,0,1.0,-999.0,97,-99.99,,,0.00,weatherlink.com 1.10,2013-08-23 10:06:00,
2013-08-23 06:21:00,69.9,69.0,29.89,NW,320,0.0,-999.0,96,-99.99,,,0.00,weatherlink.com 1.10,2013-08-23 10:21:00,
2013-08-23 06:36:00,69.9,69.0,29.90,NNE,19,0.0,-999.0,96,-99.99,,,0.00,weatherlink.com 1.10,2013-08-23 10:36:00,
2013-08-23 06:51:00,69.9,69.0,29.91,NW,315,0.0,-999.0,95,-99.99,,,0.00,weatherlink.com 1.10,2013-08-23 10:51:00,
2013-08-23 07:06:00,69.9,68.0,29.92,NNE,26,2.0,-999.0,94,-99.99,,,0.00,weatherlink.com 1.10,2013-08-23 11:06:00,
2013-08-23 07:21:00,70.1,68.0,29.92,NNE,21,0.0,-999.0,93,-99.99,,,0.00,weatherlink.com 1.10,2013-08-23 11:21:00,
2013-08-23 07:36:00,70.4,68.0,29.93,NE,42,1.0,-999.0,92,-99.99,,,0.00,weatherlink.com 1.10,2013-08-23 11:36:00,
2013-08-23 07:51:00,71.6,68.0,29.94,ENE,59,1.0,-999.0,88,-99.99,,,0.00,weatherlink.com 1.10,2013-08-23 11:51:00,
2013-08-23 08:06:00,72.3,67.0,29.94,NE,51,0.0,-999.0,83,-99.99,,,0.00,weatherlink.com 1.10,2013-08-23 12:06:00,
2013-08-23 08:21:00,72.7,66.0,29.95,WNW,300,0.0,-999.0,80,-99.99,,,0.00,weatherlink.com 1.10,2013-08-23 12:21:00,
2013-08-23 08:36:00,72.8,66.0,29.95,ENE,65,0.0,-999.0,79,-99.99,,,0.00,weatherlink.com 1.10,2013-08-23 12:36:00,
2013-08-23 08:51:00,72.8,66.0,29.95,NNW,342,0.0,-999.0,79,-99.99,,,0.00,weatherlink.com 1.10,2013-08-23 12:51:00,
2013-08-23 09:06:00,73.2,66.0,29.95,SE,128,0.0,-999.0,78,-99.99,,,0.00,weatherlink.com 1.10,2013-08-23 13:06:00,
2013-08-23 09:21:00,73.2,66.0,29.95,NNE,19,2.0,-999.0,77,-99.99,,,0.00,weatherlink.com 1.10,2013-08-23 13:21:00,
2013-08-23 09:36:00,73.3,65.0,29.95,North,359,1.0,-999.0,74,-99.99,,,0.00,weatherlink.com 1.10,2013-08-23 13:36:00,
2013-08-23 09:51:00,73.9,65.0,29.96,WNW,296,5.0,-999.0,74,-99.99,,,0.00,weatherlink.com 1.10,2013-08-23 13:51:00,
2013-08-23 10:06:00,75.1,66.0,29.96,WNW,296,0.0,-999.0,72,-99.99,,,0.00,weatherlink.com 1.10,2013-08-23 14:06:00,
2013-08-23 10:21:00,76.3,65.0,29.96,NNE,18,1.0,-999.0,67,-99.99,,,0.00,weatherlink.com 1.10,2013-08-23 14:21:00,
2013-08-23 10:36:00,78.1,63.0,29.96,NE,46,5.0,-999.0,61,-99.99,,,0.00,weatherlink.com 1.10,2013-08-23 14:36:00,
2013-08-23 10:51:00,78.5,63.0,29.96,NE,47,1.0,-999.0,60,-99.99,,,0.00,weatherlink.com 1.10,2013-08-23 14:51:00,
2013-08-23 11:06:00,79.0,63.0,29.96,NNW,339,2.0,-999.0,59,-99.99,,,0.00,weatherlink.com 1.10,2013-08-23 15:06:00,
2013-08-23 11:21:00,79.0,63.0,29.95,North,358,0.0,-999.0,59,-99.99,,,0.00,weatherlink.com 1.10,2013-08-23 15:21:00,
2013-08-23 11:36:00,80.5,62.0,29.95,NNE,19,1.0,-999.0,54,-99.99,,,0.00,weatherlink.com 1.10,2013-08-23 15:36:00,
2013-08-23 11:51:00,82.2,62.0,29.95,ENE,77,6.0,-999.0,50,-99.99,,,0.00,weatherlink.com 1.10,2013-08-23 15:51:00,
2013-08-23 12:06:00,82.8,63.0,29.95,SSW,196,0.0,-999.0,52,-99.99,,,0.00,weatherlink.com 1.10,2013-08-23 16:06:00,
2013-08-23 12:21:00,83.8,63.0,29.96,NNW,337,0.0,-999.0,50,-99.99,,,0.00,weatherlink.com 1.10,2013-08-23 16:21:00,
2013-08-23 12:36:00,84.7,60.0,29.95,NNW,330,0.0,-999.0,43,-99.99,,,0.00,weatherlink.com 1.10,2013-08-23 16:36:00,
2013-08-23 12:51:00,85.1,63.0,29.96,NNW,329,4.0,-999.0,47,-99.99,,,0.00,weatherlink.com 1.10,2013-08-23 16:51:00,
2013-08-23 13:06:00,84.5,63.0,29.96,NNW,328,1.0,-999.0,49,-99.99,,,0.00,weatherlink.com 1.10,2013-08-23 17:06:00,
2013-08-23 13:21:00,84.7,62.0,29.97,West,263,1.0,-999.0,46,-99.99,,,0.00,weatherlink.com 1.10,2013-08-23 17:21:00,
2013-08-23 13:36:00,85.7,62.0,29.97,NNE,17,0.0,-999.0,45,-99.99,,,0.00,weatherlink.com 1.10,2013-08-23 17:36:00,
2013-08-23 13:51:00,84.3,61.0,29.97,West,275,2.0,-999.0,46,-99.99,,,0.00,weatherlink.com 1.10,2013-08-23 17:51:00,
2013-08-23 14:06:00,84.3,62.0,29.98,WSW,245,2.0,-999.0,47,-99.99,,,0.00,weatherlink.com 1.10,2013-08-23 18:06:00,
2013-08-23 14:36:00,85.3,58.0,29.97,ENE,66,0.0,-999.0,40,-99.99,,,0.00,weatherlink.com 1.10,2013-08-23 18:36:00,
2013-08-23 14:51:00,84.7,58.0,29.98,NE,55,1.0,-999.0,41,-99.99,,,0.00,weatherlink.com 1.10,2013-08-23 18:51:00,
2013-08-23 15:06:00,84.7,59.0,29.98,NNE,32,2.0,-999.0,42,-99.99,,,0.00,weatherlink.com 1.10,2013-08-23 19:06:00,
2013-08-23 15:21:00,84.7,61.0,29.98,WNW,302,0.0,-999.0,45,-99.99,,,0.00,weatherlink.com 1.10,2013-08-23 19:21:00,
2013-08-23 15:36:00,84.3,61.0,29.98,NW,306,0.0,-999.0,46,-99.99,,,0.00,weatherlink.com 1.10,2013-08-23 19:36:00,
2013-08-23 15:51:00,83.0,60.0,29.98,WNW,291,2.0,-999.0,45,-99.99,,,0.00,weatherlink.com 1.10,2013-08-23 19:51:00,
2013-08-23 16:06:00,81.8,60.0,29.98,WNW,300,0.0,-999.0,48,-99.99,,,0.00,weatherlink.com 1.10,2013-08-23 20:06:00,
2013-08-23 16:21:00,80.9,61.0,29.98,WNW,303,0.0,-999.0,51,-99.99,,,0.00,weatherlink.com 1.10,2013-08-23 20:21:00,
2013-08-23 16:36:00,80.3,60.0,29.98,WNW,301,0.0,-999.0,51,-99.99,,,0.00,weatherlink.com 1.10,2013-08-23 20:36:00,
2013-08-23 16:51:00,79.9,61.0,29.98,WNW,301,0.0,-999.0,52,-99.99,,,0.00,weatherlink.com 1.10,2013-08-23 20:51:00,
2013-08-23 17:06:00,80.3,60.0,29.98,NW,307,1.0,-999.0,51,-99.99,,,0.00,weatherlink.com 1.10,2013-08-23 21:06:00,
2013-08-23 17:21:00,80.3,63.0,29.98,NW,307,0.0,-999.0,55,-99.99,,,0.00,weatherlink.com 1.10,2013-08-23 21:21:00,
2013-08-23 17:36:00,80.5,62.0,29.98,NW,305,0.0,-999.0,53,-99.99,,,0.00,weatherlink.com 1.10,2013-08-23 21:36:00,
2013-08-23 17:51:00,80.9,61.0,29.99,ENE,68,2.0,-999.0,51,-99.99,,,0.00,weatherlink.com 1.10,2013-08-23 21:51:00,
2013-08-23 18:06:00,80.7,61.0,30.00,SSW,193,0.0,-999.0,52,-99.99,,,0.00,weatherlink.com 1.10,2013-08-23 22:06:00,
2013-08-23 18:21:00,80.1,65.0,30.00,ESE,111,2.0,-999.0,60,-99.99,,,0.00,weatherlink.com 1.10,2013-08-23 22:21:00,
2013-08-23 18:36:00,78.8,65.0,30.00,ESE,118,2.0,-999.0,62,-99.99,,,0.00,weatherlink.com 1.10,2013-08-23 22:36:00,
2013-08-23 18:51:00,76.8,64.0,30.01,SSE,167,0.0,-999.0,65,-99.99,,,0.00,weatherlink.com 1.10,2013-08-23 22:51:00,
2013-08-23 19:06:00,75.4,63.0,30.01,ESE,120,1.0,-999.0,66,-99.99,,,0.00,weatherlink.com 1.10,2013-08-23 23:06:00,
2013-08-23 19:21:00,73.9,61.0,30.02,East,93,4.0,-999.0,65,-99.99,,,0.00,weatherlink.com 1.10,2013-08-23 23:21:00,
2013-08-23 19:36:00,72.7,62.0,30.03,ESE,107,1.0,-999.0,68,-99.99,,,0.00,weatherlink.com 1.10,2013-08-23 23:36:00,
2013-08-23 19:51:00,72.0,61.0,30.03,ENE,66,2.0,-999.0,69,-99.99,,,0.00,weatherlink.com 1.10,2013-08-23 23:51:00,
2013-08-23 20:06:00,71.1,61.0,30.03,ENE,71,0.0,-999.0,71,-99.99,,,0.00,weatherlink.com 1.10,2013-08-24 00:06:00,
2013-08-23 20:21:00,70.6,61.0,30.04,ENE,71,0.0,-999.0,72,-99.99,,,0.00,weatherlink.com 1.10,2013-08-24 00:21:00,
2013-08-23 20:36:00,70.1,61.0,30.06,ENE,71,0.0,-999.0,73,-99.99,,,0.00,weatherlink.com 1.10,2013-08-24 00:36:00,
2013-08-23 20:51:00,69.4,61.0,30.06,ENE,71,0.0,-999.0,74,-99.99,,,0.00,weatherlink.com 1.10,2013-08-24 00:51:00,
2013-08-23 21:06:00,68.9,61.0,30.07,ENE,71,0.0,-999.0,76,-99.99,,,0.00,weatherlink.com 1.10,2013-08-24 01:06:00,
2013-08-23 21:21:00,68.3,61.0,30.07,ENE,71,0.0,-999.0,77,-99.99,,,0.00,weatherlink.com 1.10,2013-08-24 01:21:00,
2013-08-23 21:36:00,67.8,61.0,30.07,ENE,71,0.0,-999.0,79,-99.99,,,0.00,weatherlink.com 1.10,2013-08-24 01:36:00,
2013-08-23 21:51:00,67.1,60.0,30.08,ENE,71,0.0,-999.0,79,-99.99,,,0.00,weatherlink.com 1.10,2013-08-24 01:51:00,
2013-08-23 22:06:00,66.8,61.0,30.09,ENE,71,0.0,-999.0,81,-99.99,,,0.00,weatherlink.com 1.10,2013-08-24 02:06:00,
2013-08-23 22:21:00,66.1,61.0,30.09,ENE,71,0.0,-999.0,82,-99.99,,,0.00,weatherlink.com 1.10,2013-08-24 02:21:00,
2013-08-23 22:36:00,65.6,60.0,30.09,ENE,71,0.0,-999.0,82,-99.99,,,0.00,weatherlink.com 1.10,2013-08-24 02:36:00,
2013-08-23 22:51:00,65.3,60.0,30.09,ENE,71,0.0,-999.0,84,-99.99,,,0.00,weatherlink.com 1.10,2013-08-24 02:51:00,
2013-08-23 23:06:00,65.2,61.0,30.10,ENE,71,0.0,-999.0,85,-99.99,,,0.00,weatherlink.com 1.10,2013-08-24 03:06:00,
2013-08-23 23:21:00,64.8,60.0,30.11,ENE,71,0.0,-999.0,85,-99.99,,,0.00,weatherlink.com 1.10,2013-08-24 03:21:00,
2013-08-23 23:36:00,64.7,61.0,30.11,ENE,71,0.0,-999.0,86,-99.99,,,0.00,weatherlink.com 1.10,2013-08-24 03:36:00,
2013-08-23 23:51:00,64.3,60.0,30.11,ENE,71,0.0,-999.0,86,-99.99,,,0.00,weatherlink.com 1.10,2013-08-24 03:51:00,